Location: Unspecified
(0.0000°N, 0.0000°E)
Time: 01:13:46
(UTC+00:00)

Cosmos 1238 Rocket - Pass Details

Date: 27 January 2013
Orbit: 376 x 1059 km, 82.9° (Epoch: 29 August)

Event Time Altitude Azimuth Distance (km) Brightness Sun altitude
Rises 20:05:34 0° 169° (SSE) 3,783 7.2 -26.6°
Reaches altitude 10° 20:08:15 10° 162° (SSE) 2,881 6.5 -27.3°
Enters shadow 20:11:48 30° 141° (SE) 1,851 5.2 -28.1°
